Wind_Speed
22 21 22 24 25 25 25 25 25 24 23 23 21 22 22 23 22 21 20 19 19 19 18 19 20 19 19 16 16 16 16 16 16 17 16 16 17 18 18 18 19 19 19 18
24 24 24 25 25 25 25 24 25 25 24 22 22 22 23 22 22 21 20 19 19 18 19 19 20 20 19 18 17 17 17 18 18 18 17 17 18 18 18 19 19 19 18 18
25 25 25 25 24 24 23 23 24 24 24 22 22 22 22 22 22 21 21 20 19 19 19 19 19 20 19 19 19 19 20 19 19 18 18 19 19 19 19 19 19 19 19 18
26 25 26 24 24 25 25 25 25 25 24 23 23 23 24 24 23 23 21 20 20 19 19 19 19 20 19 20 20 20 19 19 19 19 19 19 19 19 20 20 19 19 19 19
26 26 25 26 25 25 24 25 25 25 25 24 24 24 25 23 23 23 23 22 21 19 20 21 21 21 21 21 20 20 20 20 20 20 19 19 19 20 20 20 20 19 19 19
26 26 25 25 26 26 27 27 26 25 25 24 23 24 23 23 22 22 21 21 21 20 21 21 22 21 21 21 21 21 21 20 20 20 20 20 20 20 20 20 20 19 19 18
26 26 25 25 25 25 26 26 25 24 24 23 23 23 22 22 22 22 22 22 21 22 22 22 21 21 21 22 22 22 21 21 20 21 21 20 20 19 20 19 19 19 18 18
24 24 24 24 25 25 25 23 23 23 23 24 24 23 23 23 23 23 23 24 24 24 23 23 22 22 22 22 22 22 22 22 21 21 21 21 20 20 19 19 19 19 18 18
23 23 23 23 25 25 24 23 23 24 24 24 25 25 24 23 23 24 25 25 24 25 25 24 24 23 23 23 22 22 22 22 21 22 21 21 21 21 20 20 20 20 19 18
24 24 22 23 24 24 24 23 24 24 25 24 24 24 24 24 24 25 26 27 26 25 25 25 24 24 23 24 24 23 23 23 22 21 21 21 21 21 20 20 20 20 19 18
24 25 25 24 24 23 23 24 24 23 24 24 24 24 24 24 24 25 25 25 25 25 25 25 24 24 24 24 23 23 23 23 22 22 22 21 22 21 21 21 21 20 19 19
23 24 24 23 24 23 23 23 23 23 23 24 24 24 24 24 25 25 25 24 24 24 24 24 23 23 23 22 23 23 22 22 22 22 22 23 22 21 20 20 20 19 19 19
21 21 22 23 23 24 24 23 24 24 23 23 23 23 23 23 24 25 25 24 23 23 23 23 23 23 23 23 22 23 23 23 23 23 23 23 23 22 21 20 20 20 19 19
22 22 22 23 23 23 24 24 24 25 25 25 25 24 23 24 24 24 24 23 23 23 22 23 23 23 23 23 23 23 23 23 23 23 22 22 22 22 22 21 20 19 19 18
22 22 22 23 24 24 24 24 24 24 24 24 25 25 24 24 24 24 23 23 23 23 23 23 23 24 24 23 24 24 23 23 22 22 22 22 22 21 21 20 20 19 19 18
21 21 21 22 23 24 24 24 24 24 23 23 24 24 24 24 24 24 24 24 23 23 23 23 24 23 23 23 23 22 23 23 22 22 22 22 21 21 21 20 20 20 19 19
20 19 21 22 24 24 23 22 22 23 23 23 23 23 23 23 24 23 22 23 23 23 24 24 24 25 25 24 23 23 23 22 22 21 21 20 20 20 20 20 20 20 21 21
19 19 19 20 21 21 21 21 21 21 22 23 23 23 22 22 22 22 23 23 23 23 24 24 24 24 24 25 24 24 23 22 21 20 20 20 20 20 20 20 21 21 21 22
18 18 19 20 20 20 20 20 21 21 21 22 22 23 22 22 22 22 21 22 23 23 24 23 24 23 23 23 23 23 22 22 21 21 21 21 21 20 19 19 20 20 21 21
18 19 19 19 19 20 20 21 21 21 21 21 21 21 22 22 22 23 22 22 22 22 23 23 23 22 23 23 23 23 23 22 22 22 22 21 20 21 20 19 19 20 20 20
18 18 19 19 19 20 20 22 22 22 22 22 22 22 22 22 22 23 23 23 22 22 22 22 23 23 23 23 23 23 23 22 22 22 21 20 20 20 20 19 19 19 19 20
19 19 20 20 20 20 21 21 22 22 21 21 22 22 22 22 22 22 22 23 23 23 23 23 23 23 24 24 23 23 23 22 22 22 21 20 20 20 20 20 19 19 19 20
19 19 18 19 19 20 20 20 21 20 20 20 20 21 21 22 22 22 22 22 23 23 23 23 23 23 23 23 24 24 24 23 23 22 22 21 21 20 20 20 19 19 19 20
17 18 18 18 18 18 18 19 19 19 19 20 20 20 21 21 21 21 21 22 22 22 22 22 22 22 22 23 23 23 23 23 22 22 22 21 21 20 19 19 19 19 18 18
18 18 18 18 18 18 18 18 18 18 19 19 19 19 20 20 20 20 20 20 20 20 21 22 22 22 22 22 22 22 21 21 21 22 21 21 20 20 20 19 19 19 19 19
17 17 17 17 17 17 17 17 16 17 18 18 19 19 19 19 19 19 19 19 19 20 20 21 21 21 21 21 21 21 21 21 21 21 21 21 21 21 21 21 20 20 20 19
16 16 16 16 16 16 16 16 16 16 17 17 18 18 18 18 18 18 19 19 19 19 19 20 20 20 20 20 20 20 20 21 21 21 22 22 22 22 21 21 21 20 20 19
Wind_Direction
247 246 245 243 245 247 251 254 259 260 261 263 263 263 263 257 255 257 260 264 266 267 267 267 269 275 281 283 283 284 286 289 291 294 296 295 295 296 298 300 302 305 306 304
247 248 247 245 246 251 253 255 257 257 258 262 261 265 265 261 258 258 261 263 264 267 267 266 268 272 279 280 280 280 282 285 287 288 292 294 294 297 297 298 300 303 306 306
247 249 250 249 249 249 250 253 254 256 257 259 261 263 264 262 257 257 262 264 262 265 268 267 268 274 278 279 280 280 280 282 283 284 287 290 293 295 295 297 298 300 303 306
251 247 248 249 250 250 251 253 255 256 256 257 261 264 268 266 261 261 261 261 263 263 266 268 269 274 276 277 278 279 280 282 285 285 287 291 293 294 294 294 296 296 299 301
250 249 251 250 250 250 252 253 254 257 258 259 263 267 269 267 266 265 264 263 264 265 269 270 271 273 273 273 275 276 277 280 284 287 288 290 291 291 293 294 293 292 295 297
249 250 251 249 250 251 251 252 254 257 258 261 265 266 266 266 265 266 263 263 263 265 269 271 271 271 271 272 274 274 276 278 281 285 288 290 291 291 290 293 292 292 291 292
249 252 253 251 251 252 254 256 256 257 259 262 265 266 266 264 263 265 263 263 264 265 267 268 268 268 270 270 272 273 275 277 279 283 286 289 291 290 290 290 291 291 290 286
249 252 252 252 252 254 256 257 256 258 261 262 263 264 265 265 263 262 262 263 264 266 266 267 267 268 269 270 272 274 276 278 279 282 283 286 288 290 290 290 289 288 286 283
250 253 254 254 253 253 253 255 256 257 260 263 261 262 262 264 265 264 263 263 265 266 266 267 266 267 269 270 272 274 275 277 277 280 281 283 285 286 286 287 286 287 283 281
250 251 253 254 254 252 252 253 253 255 259 262 262 263 264 265 266 264 261 262 266 267 267 268 268 268 270 272 273 274 274 277 278 281 283 285 285 284 285 284 285 285 283 281
249 250 254 256 257 256 254 252 253 255 256 260 262 263 265 267 267 266 266 263 264 266 265 265 264 266 269 270 272 273 275 278 281 283 286 285 287 286 283 282 282 281 280 279
248 250 252 254 254 256 256 255 255 257 258 258 260 262 264 265 266 266 266 266 267 264 264 262 262 264 265 267 270 273 277 280 282 282 283 285 286 283 282 282 282 280 280 279
250 252 253 255 257 258 258 260 259 261 262 264 262 262 263 263 265 264 263 264 266 264 262 262 263 265 264 266 270 273 276 278 280 281 283 283 282 280 279 280 282 282 281 277
255 258 260 260 262 263 260 259 260 263 265 267 267 267 266 266 266 265 263 262 263 263 262 262 262 264 266 266 268 272 275 277 278 280 281 281 281 280 279 279 279 279 278 276
257 259 261 262 262 263 265 264 264 264 265 266 267 267 267 267 267 264 263 261 262 261 260 261 264 265 266 266 269 271 274 277 278 279 280 280 279 278 277 276 275 275 275 272
254 256 257 260 262 262 265 266 264 265 265 264 264 264 264 264 266 264 262 262 260 259 260 260 262 264 265 267 270 272 275 276 278 279 280 279 279 278 276 274 272 272 271 271
260 260 259 260 262 263 264 263 263 265 265 264 264 265 264 264 264 264 261 262 260 259 260 260 261 263 265 267 269 272 274 276 277 278 280 279 278 278 277 274 271 270 270 271
260 261 261 261 262 263 265 266 266 266 267 266 266 266 265 264 263 262 262 261 261 262 261 261 261 264 264 266 268 271 274 275 277 277 278 279 278 278 278 276 272 271 270 269
262 263 263 262 262 263 265 266 268 268 269 267 267 267 266 264 263 265 265 262 263 264 263 263 264 266 266 267 268 270 271 272 274 275 277 279 279 279 277 277 274 270 270 269
263 263 265 265 265 264 265 266 267 269 271 271 269 267 266 265 264 266 267 266 267 266 264 263 264 265 265 266 268 268 269 270 271 274 277 277 278 280 279 276 275 273 273 272
266 267 268 269 269 270 270 269 269 270 272 271 269 267 266 264 264 265 267 268 266 267 267 264 263 263 265 266 266 268 268 268 269 271 273 276 279 281 279 277 276 275 274 274
273 273 274 273 273 273 272 271 270 269 270 271 269 268 268 267 267 267 266 267 268 268 268 267 265 264 264 263 265 266 267 267 268 269 272 274 276 279 279 278 278 276 275 275
276 278 279 277 275 274 271 271 270 269 268 269 271 270 269 267 266 267 267 267 269 269 269 269 268 266 264 264 265 267 267 267 268 269 271 272 274 275 276 276 276 275 276 277
276 278 278 278 278 275 273 270 268 266 266 267 270 272 271 268 267 267 268 268 268 268 267 267 267 267 265 266 268 269 267 267 267 267 269 271 273 273 274 275 276 274 275 277
277 277 277 276 276 276 275 272 270 266 266 267 269 272 272 271 270 268 268 269 268 267 266 266 265 266 267 267 268 267 268 269 269 268 268 270 271 272 273 273 274 274 275 277
281 280 277 275 276 276 275 274 272 271 270 270 272 273 273 271 270 267 266 268 268 267 266 266 266 266 268 268 267 267 268 269 270 272 272 271 272 273 273 271 270 270 276 279
286 284 279 276 276 275 275 275 275 275 275 274 276 275 273 270 268 268 268 269 269 267 266 265 265 266 268 268 268 267 266 269 270 270 270 271 272 271 271 271 270 272 274 277
Height
5783 5784 5785 5786 5787 5789 5790 5791 5791 5792 5793 5794 5794 5794 5794 5795 5796 5796 5798 5798 5799 5800 5800 5801 5801 5800 5800 5797 5797 5796 5795 5794 5793 5792 5790 5788 5786 5783 5781 5779 5776 5773 5770 5766
5778 5779 5779 5780 5782 5783 5784 5784 5785 5786 5788 5788 5788 5788 5788 5789 5790 5791 5792 5793 5794 5795 5795 5795 5794 5794 5794 5793 5792 5791 5790 5789 5788 5787 5785 5783 5781 5779 5776 5774 5771 5768 5765 5762
5771 5772 5773 5775 5777 5777 5778 5779 5780 5781 5783 5782 5783 5783 5783 5783 5783 5784 5786 5787 5788 5788 5789 5788 5788 5788 5788 5787 5787 5786 5785 5784 5782 5781 5779 5778 5776 5773 5771 5768 5766 5763 5760 5757
5763 5766 5767 5771 5770 5770 5772 5773 5774 5774 5776 5777 5778 5778 5778 5777 5778 5778 5780 5780 5780 5781 5782 5782 5782 5782 5782 5781 5781 5780 5779 5778 5777 5775 5774 5772 5770 5768 5766 5763 5760 5758 5755 5752
5756 5758 5760 5762 5763 5764 5765 5766 5767 5768 5769 5770 5771 5772 5772 5772 5771 5771 5772 5773 5774 5775 5776 5776 5775 5775 5775 5775 5775 5774 5773 5772 5771 5769 5768 5766 5764 5762 5760 5757 5754 5752 5750 5747
5749 5751 5753 5756 5756 5757 5760 5760 5761 5761 5763 5764 5765 5766 5766 5766 5766 5766 5766 5767 5767 5768 5769 5769 5769 5769 5769 5769 5768 5768 5767 5766 5765 5763 5762 5760 5758 5756 5754 5751 5749 5746 5744 5742
5743 5744 5746 5748 5749 5751 5754 5754 5754 5755 5756 5757 5757 5759 5759 5760 5760 5760 5761 5761 5761 5762 5762 5762 5763 5763 5762 5762 5762 5761 5760 5759 5758 5757 5756 5754 5752 5750 5748 5745 5743 5741 5739 5737
5736 5737 5741 5741 5742 5744 5745 5746 5747 5748 5749 5750 5750 5751 5752 5753 5753 5754 5754 5754 5755 5755 5755 5755 5755 5755 5756 5756 5755 5755 5754 5753 5752 5750 5749 5747 5745 5743 5741 5739 5737 5735 5733 5732
5730 5733 5733 5733 5735 5736 5737 5739 5741 5742 5742 5743 5744 5744 5745 5745 5746 5746 5747 5747 5747 5748 5748 5748 5748 5748 5748 5748 5748 5748 5747 5746 5745 5743 5742 5740 5739 5737 5735 5733 5731 5729 5728 5726
5723 5724 5725 5726 5728 5729 5730 5732 5733 5734 5735 5736 5737 5737 5738 5738 5738 5739 5739 5740 5740 5740 5740 5741 5741 5741 5741 5741 5740 5740 5740 5739 5738 5736 5735 5734 5732 5730 5728 5726 5725 5723 5722 5721
5715 5717 5718 5720 5721 5722 5724 5725 5726 5727 5728 5729 5729 5730 5730 5731 5731 5731 5732 5732 5732 5732 5732 5732 5733 5733 5733 5733 5733 5733 5732 5731 5730 5729 5728 5726 5725 5723 5721 5720 5718 5717 5716 5714
5708 5710 5712 5713 5714 5715 5716 5717 5718 5719 5720 5721 5722 5722 5722 5723 5723 5723 5724 5724 5724 5724 5724 5724 5725 5725 5725 5725 5725 5725 5725 5724 5723 5722 5720 5719 5718 5716 5714 5713 5711 5710 5709 5708
5702 5703 5705 5706 5707 5707 5708 5710 5711 5711 5712 5713 5714 5714 5714 5715 5715 5716 5716 5716 5716 5716 5716 5717 5717 5718 5718 5717 5717 5717 5717 5716 5715 5714 5713 5712 5710 5709 5708 5706 5705 5704 5703 5702
5695 5696 5697 5698 5699 5700 5700 5702 5703 5704 5705 5706 5706 5706 5706 5707 5707 5707 5708 5708 5708 5709 5709 5710 5710 5710 5710 5710 5710 5709 5709 5708 5707 5706 5705 5704 5702 5701 5700 5699 5698 5697 5696 5695
5688 5689 5690 5691 5692 5693 5694 5694 5695 5696 5697 5697 5698 5698 5698 5699 5699 5700 5700 5700 5701 5701 5702 5702 5702 5703 5702 5702 5702 5701 5701 5700 5699 5698 5697 5696 5695 5694 5692 5692 5691 5690 5690 5689
5682 5682 5683 5684 5685 5686 5687 5687 5688 5688 5689 5690 5690 5691 5691 5691 5691 5691 5692 5692 5693 5693 5694 5694 5695 5695 5695 5694 5694 5693 5693 5692 5691 5690 5689 5688 5687 5686 5685 5684 5683 5683 5682 5682
5675 5676 5677 5677 5678 5678 5679 5679 5680 5680 5681 5682 5682 5683 5683 5683 5684 5684 5684 5684 5685 5685 5686 5686 5687 5687 5687 5687 5686 5686 5685 5685 5684 5683 5682 5681 5679 5678 5677 5676 5675 5675 5675 5674
5669 5669 5670 5670 5671 5671 5672 5672 5673 5673 5673 5674 5674 5675 5676 5676 5676 5676 5677 5677 5678 5678 5678 5678 5678 5678 5679 5679 5678 5678 5678 5677 5676 5675 5675 5673 5672 5671 5669 5669 5668 5667 5667 5667
5662 5663 5663 5664 5664 5664 5665 5665 5666 5666 5666 5667 5667 5667 5667 5668 5668 5669 5669 5670 5670 5670 5670 5670 5670 5670 5671 5671 5670 5670 5670 5670 5669 5668 5667 5666 5665 5663 5662 5661 5660 5660 5660 5659
5656 5657 5657 5657 5657 5658 5658 5659 5659 5659 5659 5659 5660 5660 5660 5660 5661 5661 5662 5662 5662 5662 5662 5662 5662 5662 5662 5662 5662 5662 5662 5662 5661 5661 5659 5658 5657 5656 5655 5654 5653 5653 5652 5652
5650 5651 5651 5651 5651 5651 5651 5652 5652 5652 5652 5652 5652 5653 5653 5653 5653 5654 5654 5655 5655 5654 5654 5654 5654 5654 5654 5654 5654 5654 5654 5654 5653 5653 5652 5651 5650 5649 5647 5647 5646 5645 5645 5644
5644 5644 5644 5644 5644 5644 5644 5644 5644 5645 5645 5645 5645 5645 5645 5645 5646 5646 5646 5646 5646 5646 5646 5646 5646 5646 5646 5646 5646 5646 5646 5645 5645 5645 5644 5644 5643 5642 5640 5639 5639 5638 5637 5637
5637 5637 5637 5637 5637 5637 5637 5637 5637 5637 5637 5638 5638 5638 5638 5638 5638 5638 5639 5639 5638 5638 5638 5638 5638 5637 5637 5638 5638 5638 5637 5637 5637 5637 5636 5636 5635 5634 5633 5632 5631 5631 5630 5630
5631 5631 5631 5630 5630 5629 5629 5629 5629 5630 5630 5630 5630 5630 5630 5630 5630 5630 5630 5630 5630 5630 5629 5629 5629 5629 5629 5629 5630 5630 5629 5629 5629 5629 5628 5628 5627 5627 5626 5625 5624 5624 5624 5623
5625 5625 5624 5624 5623 5623 5622 5622 5622 5622 5623 5623 5623 5623 5623 5623 5623 5622 5622 5622 5622 5622 5622 5621 5621 5621 5621 5622 5622 5622 5622 5621 5621 5621 5620 5620 5620 5619 5619 5618 5618 5618 5617 5616
5619 5619 5618 5618 5617 5617 5616 5616 5615 5615 5616 5616 5616 5616 5615 5615 5615 5615 5614 5614 5614 5614 5614 5614 5614 5614 5614 5614 5614 5614 5614 5614 5614 5613 5613 5613 5612 5612 5612 5611 5611 5611 5610 5609
5613 5613 5612 5612 5611 5611 5610 5610 5610 5609 5609 5609 5609 5608 5608 5608 5608 5607 5607 5607 5607 5607 5607 5607 5607 5607 5607 5607 5607 5607 5607 5607 5606 5606 5606 5605 5605 5605 5604 5604 5604 5603 5603 5603